Terug naar catalogus

CZ-6A DEB

ActiefPO
NORAD 61436·DEBRIS·🇨🇳 China

Gelanceerd Aug 6, 2024 vanaf Taiyuan Satellite Launch Center

Loading…

Volgende Passages (komende 24 uur)

TLE

VersSource: Space-Track

Epoch: Sep 14, 2026, 06:30 UTC

1 61436U 24140ZD  26257.27119977  .00000661  00000-0  30533-3 0  9996
2 61436  88.9352 259.3938 0054444 252.2280 107.2964 14.19085592106783

Volg CZ-6A DEB in realtime met AllMySat

Download on the App Store